Location: Dalton
(42.4737°N, 73.1662°W)
Time: 05:02:02
(UTC+00:00)

ISS - Visible Passes

Search period start: 18 September 2024 00:00
Search period end: 28 September 2024 00:00
Orbit: 414 x 424 km, 51.6° (Epoch: 18 September)

Date Brightness Start Highest point End Pass type
(mag) Time Alt. Az. Time Alt. Az. Time Alt. Az.
18 Sep -1.6 00:07:14 10° WNW 00:09:58 22° NNW 00:12:41 10° NE visible
18 Sep -0.5 01:45:16 10° NW 01:45:58 13° NNW 01:45:58 13° NNW visible
18 Sep -1.9 23:19:09 10° W 23:22:06 28° NNW 23:25:04 10° NE visible
19 Sep -1.4 00:57:23 10° NW 00:59:42 17° N 01:00:04 17° N visible
20 Sep -1.4 00:09:23 10° NW 00:11:44 17° N 00:14:06 10° NE visible
20 Sep -0.4 01:46:41 10° NW 01:47:03 12° NW 01:47:03 12° NW visible
20 Sep -1.5 23:21:17 10° WNW 23:23:47 19° N 23:26:18 10° NE visible
21 Sep -1.4 00:58:58 10° NW 01:01:04 19° N 01:01:04 19° N visible
22 Sep -1.5 00:11:08 10° NW 00:13:29 17° N 00:15:04 13° NE visible
22 Sep -0.2 01:47:49 10° NW 01:48:00 11° NW 01:48:00 11° NW visible
22 Sep -1.4 23:23:11 10° NW 23:25:29 17° N 23:27:46 10° NE visible
23 Sep -1.6 01:00:08 10° NW 01:01:59 22° NNW 01:01:59 22° NNW visible
24 Sep -2.0 00:12:24 10° NW 00:15:06 22° NNE 00:15:58 20° NE visible
24 Sep -1.7 23:24:36 10° NW 23:27:05 19° N 23:29:34 10° ENE visible
25 Sep -1.7 01:01:07 10° NW 01:02:53 27° NW 01:02:53 27° NW visible
26 Sep -2.9 00:13:23 10° NW 00:16:31 35° NNE 00:16:54 34° NE visible
26 Sep -2.3 23:25:37 10° NW 23:28:31 27° NNE 23:30:56 13° ENE visible
27 Sep -1.6 01:02:11 10° WNW 01:03:53 27° WNW 01:03:53 27° WNW visible
